Regional Weather Roundup
Issued by NWS

Home | Current Version | Previous Version | Text Only | Print | Product List | Glossary On
Versions: 1 2 3 4 5 6 7 8 9 10 11 12 13 14 15 16 17 18 19 20 21 22 23 24 25 26 27 28 29 30 31 32 33 34 35 36 37 38 39 40 41 42 43 44 45 46 47 48 49 50
000
ASUS43 KMPX 210010
RWRMN
WEATHER ROUNDUP FOR MINNESOTA
NATIONAL WEATHER SERVICE TWIN CITIES/CHANHASSEN MN
700 PM CDT SUN MAY 20 2018


NOTE: "FAIR" INDICATES FEW OR NO CLOUDS BELOW 12,000 FEET WITH NO
SIGNIFICANT WEATHER AND/OR OBSTRUCTIONS TO VISIBILITY. N/A MEANS
CURRENT SKY AND/OR WEATHER CONDITIONS ARE NOT AVAILABLE.

MNZ060>063-068>070-210100-
   Twin Cities Metro

CITY           SKY/WX    TMP DP  RH WIND       PRES   REMARKS
TWIN CITIES    PTSUNNY   71  33  24 E13       30.13S
6HR MIN TEMP:  64; 6HR MAX TEMP:  73;

ST PAUL        FAIR      70  35  27 E8        30.13F
CRYSTAL        FAIR      71  27  19 NE6       30.12F
BLAINE         MOSUNNY   72  28  20 E9        30.13F
LAKEVILLE      FAIR      68  39  34 E10       30.12F
EDEN PRAIRIE   FAIR      71  35  26 E8        30.12S
6HR MIN TEMP:  63; 6HR MAX TEMP:  72;

SOUTH ST PAUL  FAIR      70  31  23 E7        30.13S
LAKE ELMO      FAIR      70  32  24 E6        30.15S
$$
MNZ001>005-007-008-013>017-022>024-027-028-210100-
   Northwest Minnesota

CITY           SKY/WX    TMP DP  RH WIND       PRES   REMARKS
BEMIDJI        FAIR      69  32  24 CALM      30.16F
HALLOCK        FAIR      73  25  16 W5        30.11F
ROSEAU         FAIR      72  36  26 CALM      30.14S
WARROAD        FAIR      72  36  26 SW3       30.14F
THIEF RVR FALL FAIR      71  29  21 VRB3      30.15F
CROOKSTON      FAIR      72  30  21 SW5       30.14F
FOSSTON        FAIR      73  34  23 NE3       30.16F
DETROIT LAKES  FAIR      70  30  23 CALM      30.16F
MOORHEAD       FAIR      72  28  20 NE5       30.14F
PARK RAPIDS    FAIR      70  28  21 E6        30.16S
MAHNOMEN       FAIR      69  37  30 E5        30.15F
$$
MNZ006-009>011-018-025>026-210100-
   North Central Minnesota

CITY           SKY/WX    TMP DP  RH WIND       PRES   REMARKS
BAUDETTE       FAIR      72  34  24 N6        30.14S
FLAG ISLAND    FAIR      57  45  62 S9        30.12S
INTL FALLS     FAIR      73  29  19 CALM      30.14S
6HR MIN TEMP:  69; 6HR MAX TEMP:  74;

WASKISH        FAIR      70  30  23 W3        30.16F
BIG FORK       FAIR      72  34  25 CALM      30.15F
LONGVILLE      FAIR      68  34  28 NW5       30.17S
GRAND RAPIDS   FAIR      68  30  24 VRB5      30.19S
CRANE LAKE     FAIR      70  30  23 N6        30.16F
ORR            FAIR      72  19  14 CALM      30.13S
COOK           FAIR      72  28  20 CALM      30.16S
WALKER         FAIR      66  33  28 E3        30.17S
$$
MNZ012-019>021-037-210100-
   Northeast Minnesota

CITY           SKY/WX    TMP DP  RH WIND       PRES   REMARKS
DULUTH         FAIR      66  28  24 VRB3      30.18S
6HR MIN TEMP:  64; 6HR MAX TEMP:  69;

ELY            FAIR      70  27  19 CALM      30.16S
HIBBING        FAIR      68  31  25 CALM      30.16F
EVELETH        FAIR      70  30  23 CALM      30.18S
DULUTH HARBOR  FAIR      59  48  67 NE3       30.18S
TWO HARBORS    FAIR      70  37  30 SE5       30.16S
SILVER BAY     FAIR      64  30  27 S6        30.16S
GRAND MARAIS     N/A     45  35  68 SW9       30.17F
G MARAIS ARPRT FAIR      61  28  29 S3        30.19S
$$
MNZ029>031-032-039>041-046>048-054>057-064-210100-
   West Central Minnesota

CITY           SKY/WX    TMP DP  RH WIND       PRES   REMARKS
FERGUS FALLS   FAIR      68  32  26 NE9       30.09F
WHEATON        SUNNY     72  19  14 E10       30.13F
MORRIS         SUNNY     72  27  18 E9        30.12S
ALEXANDRIA     FAIR      71  30  21 E10G17    30.15F
ELBOW LAKE     FAIR      69  32  24 E7        30.14S
WADENA         FAIR      68  36  30 E6        30.15F
GLENWOOD       FAIR      70  25  18 E10       30.15S
APPLETON       SUNNY     72  16  12 E9        30.11S
BENSON         SUNNY     70  19  14 SE7       30.14S
ORTONVILLE     SUNNY     72  21  15 E12       30.11S
MADISON        PTSUNNY   73  21  14 NE14      30.10F
WILLMAR        FAIR      68  28  22 E10       30.15S
$$
MNZ033>034-036-042>043-049>051-058-059-210100-
   Central Minnesota

CITY           SKY/WX    TMP DP  RH WIND       PRES   REMARKS
ST CLOUD       FAIR      70  23  17 E10       30.14F
6HR MIN TEMP:  63; 6HR MAX TEMP:  71;

SAUK CENTRE    FAIR      69  28  21 E13       30.14S
PAYNESVILLE    FAIR      69  26  20 E9        30.14S
AITKIN         FAIR      68  28  22 NE3       30.15S
PINE RIVER     FAIR      66  36  32 SE8       30.19S
BRAINERD       FAIR      71  31  22 E6        30.16F
STAPLES        FAIR      70  27  19 E7        30.16F
LONG PRAIRIE   FAIR      68  30  24 N10       30.15F
LITTLE FALLS   FAIR      68  32  26 E5        30.15F
LITCHFIELD     FAIR      72  28  20 E8        30.14S
BUFFALO        FAIR      70  24  17 NE9       30.15S
MAPLE LAKE     FAIR      71  32  24 E5        30.15S
HUTCHINSON     FAIR      70  35  27 E8        30.14S
$$
MNZ037-044-045-052-053-210100-
   East Central Minnesota

CITY           SKY/WX    TMP DP  RH WIND       PRES   REMARKS
PRINCETON      FAIR      72  27  18 NE6       30.15S
MORA           FAIR      70  32  24 E6        30.16F
CAMBRIDGE      FAIR      73  45  35 E3        30.15S
RUSH CITY      FAIR      70  30  22 E3        30.14F
MOOSE LAKE     FAIR      68  32  26 NE6       30.15F
HINCKLEY       FAIR      70  32  24 NE5       30.15S
CLOQUET        FAIR      66   9  10 SE6       30.18S
MCGREGOR       FAIR      70  30  23 SE6       30.17S
$$
MNZ071>073-080-081-089-090-097-098-210100-
   Southwest Minnesota

CITY           SKY/WX    TMP DP  RH WIND       PRES   REMARKS
MONTEVIDEO     SUNNY     72  25  17 SE12G17   30.11S
GRANITE FALLS  MOSUNNY   73  39  29 E10       30.11F
CANBY          PTSUNNY   72  32  22 NE14      30.10F
MARSHALL       CLOUDY    66  50  56 SE14      30.11S
REDWOOD FALLS  CLOUDY    69  49  48 E9        30.10F
OLIVIA         MOSUNNY   70  37  30 E10G16    30.11S
PIPESTONE      MOSUNNY   63  50  63 SE8       30.11F
WINDOM         CLOUDY    64  43  45 E10       30.11F
WORTHINGTON    CLOUDY    62  51  67 E13       30.11F
JACKSON        CLOUDY    61  50  67 E9        30.12F
TRACY          CLOUDY    66  52  60 SE9       30.11S
SLAYTON        CLOUDY    63  49  60 E9        30.13S
$$
MNZ065>067-074>077-082>085-091>093-210100-
   South Central Minnesota

CITY           SKY/WX    TMP DP  RH WIND       PRES   REMARKS
MANKATO        FAIR      66  50  56 SE12      30.13R
NEW ULM        MOSUNNY   66  48  52 E8        30.12S
ST JAMES       CLOUDY    64  52  63 E12       30.13S
FAIRMONT       CLOUDY    61  52  72 E10       30.12F
GLENCOE        FAIR      70  37  29 E6        30.12S
FARIBAULT      FAIR      68  48  49 CALM      30.13S
OWATONNA       FAIR      66  52  59 E10       30.13S
WASECA         FAIR      63  50  63 E13       30.14S
ALBERT LEA     CLOUDY    59  48  67 E15       30.13S
$$
MNZ078>079-086>088-094>096-210100-
   Southeast Minnesota

CITY           SKY/WX    TMP DP  RH WIND       PRES   REMARKS
ROCHESTER      CLOUDY    59  51  75 SE9       30.15S
6HR MIN TEMP:  52; 6HR MAX TEMP:  60;

RED WING       FAIR      70  39  32 S3        30.11S
STANTON        FAIR      71  44  38 E7        30.12S
DODGE CENTER   FAIR      63  46  55 E10       30.14S
WINONA         CLOUDY    61  46  59 SE6       30.13S
AUSTIN         PTSUNNY   57  52  82 E9        30.14S
PRESTON        CLOUDY    55  49  83 E5        30.16S
$$
ABBREVIATIONS USED IN REMARKS
   TC - TEMPERATURES IN CELSIUS
  WCI - WIND CHILL INDEX
   HX - HEAT INDEX
  VSB - VISIBILITY
$$




USA.gov is the U.S. government's official web portal to all federal, state and local government web resources and services.